Hourly Weather Manaus

Today, 25 September, Friday

Time Temperature Precipitation Wind Pressure Humidity
00:00 +25°C° 0.3 mm 0 mps 754 mmHg 83%
01:00 +26°C° 0.3 mm 1 mps 754 mmHg 87%
02:00 +26°C° 0.3 mm 1 mps 753 mmHg 91%
03:00 +26°C° 0.1 mm 1 mps 754 mmHg 91%
04:00 +25°C° 0.1 mm 1 mps 754 mmHg 92%
05:00 +25°C° 0.1 mm 1 mps 754 mmHg 93%
06:00 +26°C° 0.4 mm 1 mps 755 mmHg 89%
07:00 +26°C° 0.4 mm 0 mps 755 mmHg 85%
08:00 +27°C° 0.4 mm 0 mps 756 mmHg 80%
09:00 +29°C° 0.3 mm 0 mps 756 mmHg 70%
10:00 +32°C° 0.3 mm 0 mps 756 mmHg 60%
11:00 +35°C° 0.3 mm 0 mps 756 mmHg 50%
12:00 +36°C° 0.4 mm 1 mps 755 mmHg 51%
13:00 +35°C° 0.4 mm 1 mps 754 mmHg 52%
14:00 +35°C° 0.4 mm 1 mps 752 mmHg 53%
15:00 +34°C° 0.1 mm 1 mps 752 mmHg 54%
16:00 +34°C° 0.1 mm 1 mps 752 mmHg 56%
17:00 +33°C° 0.1 mm 1 mps 752 mmHg 58%
18:00 +32°C° 0.1 mm 1 mps 752 mmHg 65%
19:00 +30°C° 0.1 mm 1 mps 752 mmHg 72%
20:00 +28°C° 0.1 mm 1 mps 752 mmHg 79%
21:00 +28°C° 0 mm 1 mps 753 mmHg 79%
22:00 +28°C° 0 mm 1 mps 753 mmHg 78%
23:00 +28°C° 0 mm 1 mps 754 mmHg 77%

Tomorrow, 26 September, Saturday

Time Temperature Precipitation Wind Pressure Humidity
00:00 +27°C° 0 mm 1 mps 753 mmHg 79%
01:00 +27°C° 0 mm 1 mps 753 mmHg 81%
02:00 +26°C° 0 mm 1 mps 752 mmHg 82%
03:00 +26°C° 0.1 mm 1 mps 752 mmHg 85%
04:00 +26°C° 0.1 mm 1 mps 752 mmHg 87%
05:00 +25°C° 0.1 mm 1 mps 753 mmHg 90%
06:00 +26°C° 0.2 mm 1 mps 753 mmHg 88%
07:00 +27°C° 0.2 mm 1 mps 754 mmHg 86%
08:00 +28°C° 0.2 mm 1 mps 755 mmHg 84%
09:00 +29°C° 1.2 mm 1 mps 755 mmHg 81%
10:00 +30°C° 1.2 mm 1 mps 755 mmHg 78%
11:00 +31°C° 1.2 mm 1 mps 755 mmHg 75%
12:00 +31°C° 2.1 mm 1 mps 754 mmHg 77%
13:00 +30°C° 2.1 mm 1 mps 753 mmHg 80%
14:00 +28°C° 2.1 mm 0 mps 752 mmHg 82%
15:00 +27°C° 0.4 mm 0 mps 752 mmHg 85%
16:00 +28°C° 0.4 mm 1 mps 751 mmHg 87%
17:00 +28°C° 0.4 mm 1 mps 751 mmHg 89%
18:00 +27°C° 0 mm 1 mps 751 mmHg 89%
19:00 +27°C° 0 mm 1 mps 751 mmHg 90%
20:00 +26°C° 0 mm 1 mps 752 mmHg 90%
21:00 +26°C° 0 mm 1 mps 752 mmHg 90%
22:00 +26°C° 0 mm 1 mps 752 mmHg 90%
23:00 +24°C° 0 mm 0 mps 752 mmHg 90%

Day after tomorrow, 27 September, Sunday

Time Temperature Precipitation Wind Pressure Humidity
00:00 +24°C° 0 mm 0 mps 752 mmHg 90%
01:00 +23°C° 0 mm 0 mps 752 mmHg 90%
02:00 +23°C° 0 mm 0 mps 752 mmHg 90%
03:00 +23°C° 0.5 mm 0 mps 752 mmHg 91%
04:00 +23°C° 0.5 mm 0 mps 752 mmHg 92%
05:00 +23°C° 0.5 mm 0 mps 752 mmHg 93%
06:00 +25°C° 0.3 mm 1 mps 752 mmHg 93%
07:00 +26°C° 0.3 mm 1 mps 753 mmHg 92%
08:00 +26°C° 0.3 mm 1 mps 754 mmHg 92%
09:00 +28°C° 0 mm 1 mps 754 mmHg 84%
10:00 +29°C° 0 mm 1 mps 754 mmHg 76%
11:00 +31°C° 0 mm 1 mps 754 mmHg 68%
12:00 +32°C° 0.3 mm 1 mps 753 mmHg 63%
13:00 +33°C° 0.3 mm 1 mps 752 mmHg 58%
14:00 +33°C° 0.3 mm 0 mps 751 mmHg 53%
15:00 +32°C° 1.6 mm 1 mps 751 mmHg 66%
16:00 +29°C° 1.6 mm 2 mps 751 mmHg 80%
17:00 +26°C° 1.6 mm 2 mps 750 mmHg 93%
18:00 +25°C° 0.4 mm 2 mps 751 mmHg 92%
19:00 +25°C° 0.4 mm 1 mps 751 mmHg 92%
20:00 +25°C° 0.4 mm 1 mps 751 mmHg 92%
21:00 +25°C° 0 mm 1 mps 751 mmHg 92%
22:00 +25°C° 0 mm 1 mps 751 mmHg 91%
23:00 +23°C° 0 mm 0 mps 751 mmHg 91%

28 September, Monday

Time Temperature Precipitation Wind Pressure Humidity
00:00 +23°C° 0 mm 0 mps 751 mmHg 92%
01:00 +23°C° 0 mm 0 mps 751 mmHg 92%
02:00 +23°C° 0 mm 0 mps 751 mmHg 92%
03:00 +23°C° 0.3 mm 0 mps 751 mmHg 93%
04:00 +22°C° 0.3 mm 0 mps 751 mmHg 94%
05:00 +22°C° 0.3 mm 0 mps 751 mmHg 94%
06:00 +24°C° 0.5 mm 0 mps 752 mmHg 91%
07:00 +25°C° 0.5 mm 0 mps 752 mmHg 88%
08:00 +26°C° 0.5 mm 0 mps 753 mmHg 85%
09:00 +30°C° 0 mm 1 mps 753 mmHg 73%
10:00 +33°C° 0 mm 1 mps 753 mmHg 62%
11:00 +35°C° 0 mm 1 mps 753 mmHg 50%
12:00 +36°C° 0.1 mm 2 mps 752 mmHg 49%
13:00 +37°C° 0.1 mm 2 mps 751 mmHg 48%
14:00 +37°C° 0.1 mm 2 mps 750 mmHg 46%
15:00 +36°C° 0.1 mm 2 mps 749 mmHg 49%
16:00 +36°C° 0.1 mm 2 mps 749 mmHg 52%
17:00 +34°C° 0.1 mm 1 mps 748 mmHg 55%
18:00 +32°C° 0 mm 1 mps 749 mmHg 61%
19:00 +31°C° 0 mm 1 mps 749 mmHg 67%
20:00 +29°C° 0 mm 1 mps 750 mmHg 72%
21:00 +29°C° 0 mm 1 mps 750 mmHg 74%
22:00 +28°C° 0 mm 1 mps 750 mmHg 76%
23:00 +26°C° 0 mm 0 mps 751 mmHg 78%

29 September, Tuesday

Time Temperature Precipitation Wind Pressure Humidity
00:00 +27°C° 0 mm 1 mps 750 mmHg 79%
01:00 +27°C° 0 mm 1 mps 750 mmHg 81%
02:00 +27°C° 0 mm 1 mps 750 mmHg 83%
03:00 +26°C° 0 mm 1 mps 750 mmHg 84%
04:00 +26°C° 0 mm 1 mps 750 mmHg 86%
05:00 +26°C° 0 mm 1 mps 751 mmHg 88%
06:00 +27°C° 0 mm 1 mps 751 mmHg 84%
07:00 +28°C° 0 mm 1 mps 752 mmHg 80%
08:00 +29°C° 0 mm 1 mps 753 mmHg 76%
09:00 +32°C° 0.1 mm 1 mps 753 mmHg 66%
10:00 +35°C° 0.1 mm 1 mps 753 mmHg 57%
11:00 +35°C° 0.1 mm 0 mps 753 mmHg 47%
12:00 +37°C° 0.2 mm 1 mps 752 mmHg 47%
13:00 +37°C° 0.2 mm 1 mps 751 mmHg 46%
14:00 +37°C° 0.2 mm 1 mps 750 mmHg 45%
15:00 +36°C° 0.1 mm 1 mps 750 mmHg 50%
16:00 +35°C° 0.1 mm 1 mps 750 mmHg 54%
17:00 +33°C° 0.1 mm 1 mps 749 mmHg 58%
18:00 +31°C° 0.4 mm 1 mps 750 mmHg 68%
19:00 +29°C° 0.4 mm 1 mps 750 mmHg 77%
20:00 +27°C° 0.4 mm 2 mps 751 mmHg 87%
21:00 +27°C° 0 mm 1 mps 751 mmHg 85%
22:00 +27°C° 0 mm 1 mps 751 mmHg 84%
23:00 +27°C° 0 mm 1 mps 752 mmHg 83%

30 September, Wednesday

Time Temperature Precipitation Wind Pressure Humidity
00:00 +27°C° 0 mm 1 mps 751 mmHg 84%
01:00 +27°C° 0 mm 1 mps 751 mmHg 84%
02:00 +27°C° 0 mm 1 mps 751 mmHg 85%
03:00 +26°C° 0 mm 1 mps 751 mmHg 86%
04:00 +26°C° 0 mm 1 mps 751 mmHg 87%
05:00 +24°C° 0 mm 0 mps 752 mmHg 89%
06:00 +25°C° 0.4 mm 0 mps 752 mmHg 86%
07:00 +28°C° 0.4 mm 1 mps 753 mmHg 83%
08:00 +29°C° 0.4 mm 1 mps 754 mmHg 80%
09:00 +29°C° 0.9 mm 1 mps 754 mmHg 80%
10:00 +28°C° 0.9 mm 0 mps 754 mmHg 79%
11:00 +29°C° 0.9 mm 0 mps 754 mmHg 79%
12:00 +30°C° 0.1 mm 0 mps 753 mmHg 71%
13:00 +33°C° 0.1 mm 1 mps 752 mmHg 62%
14:00 +34°C° 0.1 mm 1 mps 751 mmHg 54%
15:00 +34°C° 0 mm 1 mps 751 mmHg 55%
16:00 +34°C° 0 mm 1 mps 750 mmHg 56%
17:00 +33°C° 0 mm 1 mps 750 mmHg 58%
18:00 +32°C° 0 mm 1 mps 750 mmHg 64%
19:00 +30°C° 0 mm 1 mps 751 mmHg 70%
20:00 +28°C° 0 mm 1 mps 751 mmHg 76%
21:00 +28°C° 0 mm 1 mps 751 mmHg 77%
22:00 +27°C° 0 mm 1 mps 751 mmHg 79%
23:00 +27°C° 0 mm 1 mps 751 mmHg 80%
Show more